tititudorancea.com
Station Historical Data
Daily Summary for February 3, 2019 Units:  Metric    English   Both
« Previous Day
Next Day »
Daily Weekly Monthly Yearly Custom
  High: Low: Average:
Temperature: -17.8 °C 11.7 °C 24.9 °C
Dew Point: -17.8 °C 1.7 °C 7.9 °C
Humidity: Humidity % 13 % 42 %
Wind Speed: 0 km/h 0 km/h 15.6 km/h
Wind Gust: 0 km/h - -
Wind:- - SW
Pressure: 0 hPa 1002.9 hPa -
Precipitation: 0 mm    
Historical Graphs
 
 
Ararat weather Find more about Weather in Ararat, AU


 



 


Tabular Data for February 3, 2019
Time Temperature Dew Point Pressure Wind Wind Speed Wind Gust Humidity Rainfall Rate (Hourly)
-17.8 °C -17.8 °C 0 hPa Calm     Humidity % 0 mm
00:04 19.9 °C 8.8 °C 1009.4 hPa South 8 km/h 4.8 km/h 49 % 0 mm
00:09 19.8 °C 8.8 °C 1009.4 hPa South 7.4 km/h 5.6 km/h 49 % 0 mm
00:14 19.8 °C 8.8 °C 1009.4 hPa South 9.7 km/h 7.1 km/h 49 % 0 mm
00:19 19.8 °C 9.1 °C 1009.4 hPa South 7.4 km/h 7.6 km/h 50 % 0 mm
00:24 19.7 °C 8.9 °C 1009.4 hPa South 13 km/h 6 km/h 50 % 0 mm
00:29 19.6 °C 8.9 °C 1009.4 hPa South 7.4 km/h 6.8 km/h 50 % 0 mm
00:34 19.6 °C 8.8 °C 1009 hPa South 9.3 km/h 3.5 km/h 50 % 0 mm
00:39 19.5 °C 9.1 °C 1009.4 hPa South 11.1 km/h 7.1 km/h 51 % 0 mm
00:44 19.5 °C 9.1 °C 1009.4 hPa SSW 14.8 km/h 7.6 km/h 51 % 0 mm
00:49 19.4 °C 9.1 °C 1009.4 hPa SSW 5.6 km/h 3.9 km/h 51 % 0 mm
00:54 19.4 °C 9.3 °C 1009 hPa SSW 11.1 km/h 4.7 km/h 52 % 0 mm
00:59 19.3 °C 9.2 °C 1009 hPa SSW 8 km/h 7.7 km/h 52 % 0 mm
01:04 19.3 °C 9.2 °C 1009 hPa SSW 7.4 km/h 3.2 km/h 52 % 0 mm
01:09 19.3 °C 9.2 °C 1009 hPa SSW 9.3 km/h 5.6 km/h 52 % 0 mm
01:14 19.3 °C 9.2 °C 1009 hPa SSW 7.4 km/h 6.8 km/h 52 % 0 mm
01:19 19.2 °C 9.4 °C 1009 hPa SSW 5.6 km/h 3.5 km/h 53 % 0 mm
01:24 19.2 °C 9.3 °C 1009 hPa SSW 6.4 km/h 3.2 km/h 53 % 0 mm
01:29 19 °C 9.2 °C 1009 hPa SSW 1.6 km/h 1.3 km/h 53 % 0 mm
01:34 18.7 °C 9.2 °C 1008.7 hPa SSW 5.6 km/h 2.9 km/h 54 % 0 mm
01:39 18.2 °C 9 °C 1009 hPa SSW 3.7 km/h 2.4 km/h 55 % 0 mm
01:44 17.8 °C 8.9 °C 1009 hPa SSW 1.6 km/h 1.6 km/h 56 % 0 mm
01:49 17.4 °C 8.5 °C 1008.7 hPa SSW 1.9 km/h 1.6 km/h 56 % 0 mm
01:54 16.8 °C 8.3 °C 1009 hPa Calm     57 % 0 mm
01:59 16.4 °C 8.2 °C 1008.7 hPa Calm     58 % 0 mm
02:04 16.1 °C 8.1 °C 1009 hPa Calm     59 % 0 mm
02:09 15.8 °C 8.1 °C 1008.7 hPa Calm     60 % 0 mm
02:14 15.6 °C 7.8 °C 1008.7 hPa Calm     60 % 0 mm
02:19 15.3 °C 7.8 °C 1008.7 hPa Calm     61 % 0 mm
02:24 15 °C 7.8 °C 1008.7 hPa Calm     62 % 0 mm
02:29 14.8 °C 7.8 °C 1008.7 hPa Calm     63 % 0 mm
02:34 14.6 °C 7.9 °C 1008.7 hPa Calm     64 % 0 mm
02:39 14.4 °C 7.7 °C 1008.7 hPa Calm     64 % 0 mm
02:44 14.2 °C 7.7 °C 1008.4 hPa Calm     65 % 0 mm
02:49 13.9 °C 7.9 °C 1008.4 hPa Calm     67 % 0 mm
02:54 13.8 °C 7.8 °C 1008.4 hPa Calm     67 % 0 mm
02:59 13.6 °C 7.8 °C 1008.4 hPa Calm     68 % 0 mm
03:04 13.5 °C 7.7 °C 1008.4 hPa Calm     68 % 0 mm
03:09 13.4 °C 7.9 °C 1008.4 hPa Calm     69 % 0 mm
03:14 13.3 °C 7.8 °C 1008.4 hPa Calm     69 % 0 mm
03:19 13.2 °C 7.8 °C 1008.4 hPa Calm     70 % 0 mm
03:24 13.1 °C 7.7 °C 1008.4 hPa Calm     70 % 0 mm
03:29 13 °C 7.9 °C 1008.4 hPa Calm     71 % 0 mm
03:34 12.9 °C 7.8 °C 1008.4 hPa Calm     71 % 0 mm
03:39 12.9 °C 7.8 °C 1008.4 hPa Calm     71 % 0 mm
03:44 12.9 °C 7.9 °C 1008.4 hPa Calm     72 % 0 mm
03:49 12.9 °C 7.9 °C 1008.4 hPa Calm     72 % 0 mm
03:54 12.8 °C 7.9 °C 1008.4 hPa Calm     72 % 0 mm
03:59 12.8 °C 8.1 °C 1008 hPa Calm     73 % 0 mm
04:04 12.8 °C 8.1 °C 1008 hPa Calm     73 % 0 mm
04:09 12.7 °C 7.8 °C 1008 hPa Calm     72 % 0 mm
04:14 12.7 °C 7.9 °C 1008 hPa Calm     73 % 0 mm
04:19 12.6 °C 7.9 °C 1008 hPa Calm     73 % 0 mm
04:24 12.6 °C 7.8 °C 1008 hPa Calm     73 % 0 mm
04:29 12.6 °C 8.1 °C 1008 hPa Calm     74 % 0 mm
04:34 12.7 °C 8.2 °C 1008 hPa Calm     74 % 0 mm
04:39 12.7 °C 8.2 °C 1008 hPa Calm     74 % 0 mm
04:44 12.6 °C 8.1 °C 1008 hPa Calm     74 % 0 mm
04:49 12.5 °C 8 °C 1008 hPa Calm     74 % 0 mm
04:54 12.4 °C 7.9 °C 1008 hPa Calm     74 % 0 mm
04:59 12.4 °C 7.9 °C 1008 hPa Calm     74 % 0 mm
05:04 12.3 °C 7.9 °C 1008 hPa Calm     75 % 0 mm
05:09 12.3 °C 8.2 °C 1008 hPa Calm     76 % 0 mm
05:14 12.3 °C 8.2 °C 1008 hPa SSW 3.2 km/h 0.8 km/h 76 % 0 mm
05:19 12.4 °C 8.5 °C 1008 hPa SSW 5.6 km/h 3.1 km/h 77 % 0 mm
05:24 12.6 °C 8.4 °C 1008 hPa SSW 3.7 km/h 1.4 km/h 76 % 0 mm
05:29 12.6 °C 8.5 °C 1008 hPa Calm     76 % 0 mm
05:34 12.7 °C 8.6 °C 1008 hPa Calm     76 % 0 mm
05:39 12.6 °C 8.3 °C 1008 hPa Calm     75 % 0 mm
05:44 12.6 °C 8.5 °C 1008 hPa Calm     76 % 0 mm
05:49 12.7 °C 8.6 °C 1008 hPa Calm     76 % 0 mm
05:54 12.7 °C 8.4 °C 1008 hPa SSW 1.6 km/h 0.2 km/h 75 % 0 mm
05:59 12.6 °C 8.1 °C 1008 hPa Calm     74 % 0 mm
06:04 12.4 °C 7.7 °C 1008 hPa Calm     73 % 0 mm
06:09 12.3 °C 7.6 °C 1008 hPa Calm     73 % 0 mm
06:14 12.1 °C 7.4 °C 1008 hPa Calm     73 % 0 mm
06:19 11.9 °C 7.4 °C 1008 hPa Calm     74 % 0 mm
06:24 11.8 °C 7.6 °C 1008 hPa Calm     75 % 0 mm
06:29 11.7 °C 7.6 °C 1008 hPa Calm     76 % 0 mm
06:34 11.7 °C 7.8 °C 1008 hPa Calm     77 % 0 mm
06:39 11.8 °C 8.1 °C 1008 hPa Calm     78 % 0 mm
06:44 11.7 °C 7.8 °C 1008 hPa Calm     77 % 0 mm
06:49 11.8 °C 8.1 °C 1008 hPa Calm     78 % 0 mm
06:54 11.9 °C 8.2 °C 1008 hPa Calm     78 % 0 mm
06:59 12 °C 8.3 °C 1008 hPa Calm     78 % 0 mm
07:04 12 °C 8.3 °C 1008.4 hPa Calm     78 % 0 mm
07:09 12.1 °C 8.4 °C 1008.4 hPa SSW 3.7 km/h 2.4 km/h 78 % 0 mm
07:14 12.3 °C 8.6 °C 1008.4 hPa Calm     78 % 0 mm
07:19 12.4 °C 8.5 °C 1008.4 hPa Calm     77 % 0 mm
07:24 12.6 °C 8.7 °C 1008.4 hPa Calm     77 % 0 mm
07:29 12.8 °C 8.8 °C 1008.4 hPa Calm     77 % 0 mm
07:34 13 °C 9.1 °C 1008.4 hPa Calm     77 % 0 mm
07:39 13.4 °C 9.4 °C 1008.4 hPa Calm     77 % 0 mm
07:44 13.7 °C 9.8 °C 1008.4 hPa Calm     77 % 0 mm
07:49 14.3 °C 10.1 °C 1008 hPa Calm     76 % 0 mm
07:54 14.8 °C 10.7 °C 1008.4 hPa Calm     76 % 0 mm
07:59 15.5 °C 11.1 °C 1008.4 hPa Calm     75 % 0 mm
08:04 16.2 °C 11.3 °C 1008.4 hPa Calm     73 % 0 mm
08:09 16.9 °C 11.4 °C 1008.4 hPa Calm     70 % 0 mm
08:14 17.7 °C 11.5 °C 1008.4 hPa SSW 4.8 km/h 1.4 km/h 67 % 0 mm
08:19 18.5 °C 11.3 °C 1008.4 hPa SSW 3.7 km/h 2.4 km/h 63 % 0 mm
08:24 19.3 °C 11.1 °C 1008.4 hPa SSW 3.7 km/h 1.9 km/h 59 % 0 mm
08:29 20.4 °C 9.3 °C 1008.4 hPa SSW 8 km/h 6.1 km/h 49 % 0 mm
08:34 21.8 °C 9.1 °C 1008.4 hPa SSW 9.3 km/h 7.2 km/h 44 % 0 mm
08:39 22.8 °C 8.4 °C 1008.4 hPa SSW 8 km/h 6.3 km/h 40 % 0 mm
08:44 23.6 °C 8.8 °C 1008.7 hPa SSW 5.6 km/h 5.6 km/h 39 % 0 mm
08:49 24.1 °C 8.4 °C 1008.7 hPa SSW 9.3 km/h 7.1 km/h 37 % 0 mm
08:54 24.5 °C 8.4 °C 1008.7 hPa SSW 5.6 km/h 7.2 km/h 36 % 0 mm
08:59 24.9 °C 8.4 °C 1008.7 hPa SSW 9.3 km/h 6.9 km/h 35 % 0 mm
09:04 25.4 °C 8.4 °C 1008.7 hPa SSW 7.4 km/h 4.3 km/h 34 % 0 mm
09:09 25.9 °C 8.4 °C 1008.7 hPa SSW 7.4 km/h 5.5 km/h 33 % 0 mm
09:14 26.4 °C 7.9 °C 1008.7 hPa SSW 7.4 km/h 5.1 km/h 31 % 0 mm
09:19 26.8 °C 8.2 °C 1008.7 hPa SSW 7.4 km/h 4.3 km/h 31 % 0 mm
09:24 27.3 °C 8.7 °C 1008.7 hPa SSW 7.4 km/h 2.6 km/h 31 % 0 mm
09:29 27.8 °C 8.1 °C 1008.7 hPa SSW 5.6 km/h 1.1 km/h 29 % 0 mm
09:34 28.4 °C 8.1 °C 1008.7 hPa SSW 5.6 km/h 4.7 km/h 28 % 0 mm
09:39 28.7 °C 7.3 °C 1008.7 hPa SSW 5.6 km/h 4 km/h 26 % 0 mm
09:44 29.2 °C 7.1 °C 1008.7 hPa SSW 11.1 km/h 6.3 km/h 25 % 0 mm
09:49 29.6 °C 6.8 °C 1008.7 hPa SSW 5.6 km/h 0.8 km/h 24 % 0 mm
09:54 30.1 °C 6.7 °C 1008.7 hPa SSW 11.1 km/h 4.5 km/h 23 % 0 mm
09:59 30.6 °C 6.4 °C 1008.4 hPa East 7.4 km/h 4.3 km/h 22 % 0 mm
10:04 31.1 °C 4.7 °C 1008.4 hPa ENE 9.3 km/h 6.3 km/h 19 % 0 mm
10:09 31.6 °C 4.3 °C 1008.4 hPa NE 11.1 km/h 6.4 km/h 18 % 0 mm
10:14 31.9 °C 4.6 °C 1008.4 hPa NE 7.4 km/h 7.1 km/h 18 % 0 mm
10:19 32 °C 3.9 °C 1008.4 hPa NNW 16.7 km/h 10.5 km/h 17 % 0 mm
10:24 32.1 °C 4 °C 1008.4 hPa NW 16.7 km/h 11.9 km/h 17 % 0 mm
10:29 32.3 °C 3.3 °C 1008.4 hPa North 18.5 km/h 14 km/h 16 % 0 mm
10:34 32.4 °C 3.3 °C 1008.4 hPa NNW 11.1 km/h 7.7 km/h 16 % 0 mm
10:39 32.6 °C 2.6 °C 1008.4 hPa North 13 km/h 11.6 km/h 15 % 0 mm
10:44 32.9 °C 2.9 °C 1008.4 hPa NW 18.5 km/h 11.9 km/h 15 % 0 mm
10:49 32.9 °C 2.9 °C 1008 hPa NW 18.5 km/h 12.9 km/h 15 % 0 mm
10:54 33.2 °C 3.1 °C 1008 hPa NNW 25.7 km/h 16.3 km/h 15 % 0 mm
10:59 33.2 °C 4 °C 1008 hPa NNW 14.8 km/h 11.4 km/h 16 % 0 mm
11:04 33.4 °C 4.2 °C 1008 hPa NNW 20.4 km/h 9.7 km/h 16 % 0 mm
11:09 33.5 °C 3.3 °C 1008 hPa North 16.7 km/h 11.9 km/h 15 % 0 mm
11:14 33.8 °C 3.6 °C 1008 hPa NW 14.5 km/h 5.8 km/h 15 % 0 mm
11:19 34.1 °C 2.8 °C 1008 hPa NW 33.8 km/h 15.8 km/h 14 % 0 mm
11:24 33.8 °C 2.6 °C 1008 hPa NW 19.3 km/h 13.5 km/h 14 % 0 mm
11:29 33.9 °C 2.7 °C 1007.7 hPa NNW 14.8 km/h 7.2 km/h 14 % 0 mm
11:34 34.2 °C 2.9 °C 1007.7 hPa WNW 31.5 km/h 14.2 km/h 14 % 0 mm
11:39 34.1 °C 1.7 °C 1007.7 hPa NNW 18.5 km/h 13.7 km/h 13 % 0 mm
11:44 34.3 °C 3 °C 1007.7 hPa NNW 25.9 km/h 5.8 km/h 14 % 0 mm
11:49 34.7 °C 3.3 °C 1007.7 hPa North 20.4 km/h 15 km/h 14 % 0 mm
11:54 34.7 °C 2.3 °C 1007.3 hPa NNW 25.9 km/h 17.5 km/h 13 % 0 mm
11:59 35 °C 2.4 °C 1007.3 hPa NNW 18.5 km/h 15.3 km/h 13 % 0 mm
12:04 35.2 °C 2.7 °C 1007.3 hPa NNW 16.7 km/h 14.5 km/h 13 % 0 mm
12:09 35.6 °C 2.9 °C 1007.3 hPa WNW 20.4 km/h 15.9 km/h 13 % 0 mm
12:14 35.8 °C 4.1 °C 1007.3 hPa North 18.5 km/h 12.4 km/h 14 % 0 mm
12:19 35.5 °C 3.9 °C 1007.3 hPa North 24.1 km/h 15.6 km/h 14 % 0 mm
12:24 35.3 °C 3.8 °C 1007 hPa NNW 13 km/h 9 km/h 14 % 0 mm
12:29 35.6 °C 4.9 °C 1007 hPa NNW 14.8 km/h 10 km/h 15 % 0 mm
12:34 35.9 °C 4.3 °C 1007 hPa North 18.5 km/h 11.1 km/h 14 % 0 mm
12:39 35.9 °C 5.2 °C 1007 hPa NNE 14.8 km/h 12.4 km/h 15 % 0 mm
12:44 36.2 °C 5.4 °C 1006.7 hPa NW 18.5 km/h 13 km/h 15 % 0 mm
12:49 36.2 °C 5.4 °C 1006.7 hPa NNW 22.2 km/h 13.5 km/h 15 % 0 mm
12:54 36.3 °C 5.6 °C 1006.7 hPa NW 29.6 km/h 18 km/h 15 % 0 mm
12:59 36.2 °C 5.4 °C 1006.7 hPa NW 16.7 km/h 9.8 km/h 15 % 0 mm
13:04 36.7 °C 5.8 °C 1006.3 hPa WNW 7.4 km/h 5.5 km/h 15 % 0 mm
13:09 36.8 °C 5.9 °C 1006.3 hPa WNW 22.2 km/h 14.8 km/h 15 % 0 mm
13:14 36.8 °C 5.9 °C 1006.3 hPa NNW 27.4 km/h 20.1 km/h 15 % 0 mm
13:19 36.8 °C 4.9 °C 1006.3 hPa NW 25.9 km/h 15.9 km/h 14 % 0 mm
13:24 36.8 °C 5.9 °C 1006 hPa NNE 25.7 km/h 15.8 km/h 15 % 0 mm
13:29 37.1 °C 6.1 °C 1006 hPa NNW 18.5 km/h 15.3 km/h 15 % 0 mm
13:34 36.9 °C 6 °C 1006 hPa North 16.7 km/h 10.9 km/h 15 % 0 mm
13:39 37.3 °C 6.3 °C 1006 hPa NW 20.4 km/h 17.9 km/h 15 % 0 mm
13:44 37.1 °C 6.2 °C 1006 hPa NNW 25.9 km/h 14.2 km/h 15 % 0 mm
13:49 37.2 °C 6.3 °C 1005.6 hPa NNW 29.6 km/h 20.8 km/h 15 % 0 mm
13:54 37.7 °C 5.6 °C 1005.6 hPa NNW 27.8 km/h 14.6 km/h 14 % 0 mm
13:59 37.7 °C 5.7 °C 1005.6 hPa North 27.8 km/h 17.7 km/h 14 % 0 mm
14:04 37.7 °C 5.6 °C 1005.6 hPa NNW 27.8 km/h 14.8 km/h 14 % 0 mm
14:09 38.1 °C 5.9 °C 1005.3 hPa NNE 18.5 km/h 17.2 km/h 14 % 0 mm
14:14 38.2 °C 6 °C 1005.3 hPa NNW 18.5 km/h 14.5 km/h 14 % 0 mm
14:19 37.8 °C 5.7 °C 1005.3 hPa NW 25.9 km/h 16.4 km/h 14 % 0 mm
14:24 37.6 °C 6.5 °C 1005.3 hPa WNW 16.7 km/h 13.7 km/h 15 % 0 mm
14:29 38 °C 5.9 °C 1005.3 hPa NW 25.9 km/h 16.1 km/h 14 % 0 mm
14:34 37.8 °C 5.7 °C 1005 hPa NW 18.5 km/h 15.4 km/h 14 % 0 mm
14:39 37.7 °C 6.7 °C 1005 hPa WNW 27.4 km/h 18 km/h 15 % 0 mm
14:44 38.1 °C 6.9 °C 1005 hPa NW 18.5 km/h 14.3 km/h 15 % 0 mm
14:49 38.4 °C 6.2 °C 1005 hPa NW 37 km/h 21.9 km/h 14 % 0 mm
14:54 38.1 °C 5.9 °C 1005 hPa WNW 16.7 km/h 9 km/h 14 % 0 mm
14:59 38.4 °C 6.2 °C 1004.6 hPa NNW 37 km/h 14 km/h 14 % 0 mm
15:04 38.5 °C 6.3 °C 1004.6 hPa NW 24.1 km/h 11.4 km/h 14 % 0 mm
15:09 38.4 °C 6.2 °C 1004.6 hPa WNW 29.6 km/h 20.6 km/h 14 % 0 mm
15:14 38.2 °C 7.1 °C 1004.3 hPa NW 22.2 km/h 9.5 km/h 15 % 0 mm
15:19 38.4 °C 6.2 °C 1004.3 hPa West 20.4 km/h 10.6 km/h 14 % 0 mm
15:24 38.8 °C 6.5 °C 1004.3 hPa NNE 25.9 km/h 18.2 km/h 14 % 0 mm
15:29 38.8 °C 6.5 °C 1004.3 hPa NW 31.5 km/h 18.2 km/h 14 % 0 mm
15:34 38.7 °C 6.4 °C 1003.9 hPa NW 18.5 km/h 11.3 km/h 14 % 0 mm
15:39 39 °C 6.7 °C 1003.9 hPa WNW 25.7 km/h 15.4 km/h 14 % 0 mm
15:44 39.1 °C 6.7 °C 1003.9 hPa NNW 29.6 km/h 17.2 km/h 14 % 0 mm
15:49 39.3 °C 5.8 °C 1003.6 hPa WNW 24.1 km/h 20.6 km/h 13 % 0 mm
15:54 39.3 °C 6.9 °C 1003.9 hPa NW 37 km/h 22.7 km/h 14 % 0 mm
15:59 39.1 °C 5.7 °C 1003.6 hPa WNW 24.1 km/h 13.5 km/h 13 % 0 mm
16:04 39.1 °C 6.7 °C 1003.6 hPa NW 22.2 km/h 15.3 km/h 14 % 0 mm
16:09 38.9 °C 5.6 °C 1003.6 hPa NW 24.1 km/h 21.6 km/h 13 % 0 mm
16:14 38.6 °C 6.3 °C 1003.6 hPa NW 18.5 km/h 14.5 km/h 14 % 0 mm
16:19 39.1 °C 6.7 °C 1003.6 hPa NW 18.5 km/h 12.9 km/h 14 % 0 mm
16:24 38.9 °C 6.6 °C 1003.6 hPa North 24.1 km/h 16.9 km/h 14 % 0 mm
16:29 39 °C 6.7 °C 1003.3 hPa NW 18.5 km/h 10.8 km/h 14 % 0 mm
16:34 38.5 °C 6.3 °C 1003.3 hPa NW 25.9 km/h 19.2 km/h 14 % 0 mm
16:39 38.6 °C 6.3 °C 1003.3 hPa NNW 24.1 km/h 12.9 km/h 14 % 0 mm
16:44 38.8 °C 6.5 °C 1002.9 hPa NW 22.2 km/h 16.4 km/h 14 % 0 mm
16:49 39.3 °C 6.9 °C 1003.3 hPa NW 20.4 km/h 11.3 km/h 14 % 0 mm
16:54 39.5 °C 6 °C 1003.3 hPa WSW 35.2 km/h 19.2 km/h 13 % 0 mm
16:59 39.2 °C 5.8 °C 1002.9 hPa WNW 25.9 km/h 18.2 km/h 13 % 0 mm
17:04 38.6 °C 6.3 °C 1002.9 hPa NNW 16.7 km/h 9.7 km/h 14 % 0 mm
17:09 38.4 °C 6.2 °C 1002.9 hPa WNW 29.6 km/h 17.7 km/h 14 % 0 mm
17:14 37.9 °C 5.8 °C 1002.9 hPa WSW 18.5 km/h 13.8 km/h 14 % 0 mm
17:19 38.1 °C 5.9 °C 1002.9 hPa West 9.7 km/h 7.9 km/h 14 % 0 mm
17:24 38.8 °C 6.5 °C 1002.9 hPa NW 11.1 km/h 7.9 km/h 14 % 0 mm
17:29 38.8 °C 5.4 °C 1003.3 hPa WNW 22.2 km/h 13.4 km/h 13 % 0 mm
17:34 36.9 °C 10.9 °C 1003.3 hPa SSW 27.8 km/h 15.9 km/h 21 % 0 mm
17:39 35.3 °C 11.7 °C 1003.6 hPa SW 35.2 km/h 26.4 km/h 24 % 0 mm
17:44 33.9 °C 11.7 °C 1003.6 hPa South 30.6 km/h 23.2 km/h 26 % 0 mm
17:49 34 °C 12.4 °C 1003.6 hPa SW 31.5 km/h 22.9 km/h 27 % 0 mm
17:54 33.6 °C 12.6 °C 1003.9 hPa SSW 38.9 km/h 26.2 km/h 28 % 0 mm
17:59 32.9 °C 12.6 °C 1003.9 hPa SSW 42.6 km/h 22.4 km/h 29 % 0 mm
18:04 32.6 °C 12.8 °C 1004.3 hPa SSW 37 km/h 29.6 km/h 30 % 0 mm
18:09 32.4 °C 13.1 °C 1004.3 hPa South 32.2 km/h 22 km/h 31 % 0 mm
18:14 32 °C 12.8 °C 1004.3 hPa South 40.7 km/h 29 km/h 31 % 0 mm
18:19 31.2 °C 12.6 °C 1004.3 hPa SW 38.9 km/h 23.5 km/h 32 % 0 mm
18:24 30.8 °C 12.7 °C 1004.6 hPa South 35.2 km/h 19.2 km/h 33 % 0 mm
18:29 30.4 °C 12.3 °C 1004.6 hPa South 31.5 km/h 17.2 km/h 33 % 0 mm
18:34 29.8 °C 11.8 °C 1005 hPa SSW 44.4 km/h 25.7 km/h 33 % 0 mm
18:39 29.5 °C 12 °C 1005 hPa South 29.6 km/h 21.2 km/h 34 % 0 mm
18:44 29.6 °C 12.1 °C 1005.3 hPa SSW 30.6 km/h 22.5 km/h 34 % 0 mm
18:49 29.4 °C 11.9 °C 1005.3 hPa SSW 31.5 km/h 19.6 km/h 34 % 0 mm
18:54 29.2 °C 11.7 °C 1005.3 hPa South 37 km/h 19.2 km/h 34 % 0 mm
18:59 29 °C 11.6 °C 1005.3 hPa South 29.6 km/h 9.8 km/h 34 % 0 mm
19:04 28.8 °C 10.9 °C 1005.6 hPa SSE 22.2 km/h 13.4 km/h 33 % 0 mm
19:09 28.8 °C 9.9 °C 1005.6 hPa SSE 25.7 km/h 20.1 km/h 31 % 0 mm
19:14 28.6 °C 10.2 °C 1006 hPa South 40.7 km/h 19.8 km/h 32 % 0 mm
19:19 28.4 °C 10.1 °C 1006 hPa South 18.5 km/h 13.5 km/h 32 % 0 mm
19:24 28.3 °C 10 °C 1006 hPa South 33.3 km/h 18 km/h 32 % 0 mm
19:29 28.2 °C 9.9 °C 1006.3 hPa SSW 31.5 km/h 15.4 km/h 32 % 0 mm
19:34 27.9 °C 9.7 °C 1006.7 hPa South 32.2 km/h 22 km/h 32 % 0 mm
19:39 27.7 °C 9.9 °C 1006.7 hPa South 22.2 km/h 17.4 km/h 33 % 0 mm
19:44 27.3 °C 10.9 °C 1007 hPa South 29.6 km/h 22.5 km/h 36 % 0 mm
19:49 27 °C 11.4 °C 1007.3 hPa South 24.1 km/h 14.5 km/h 38 % 0 mm
19:54 26.7 °C 11.6 °C 1007.3 hPa South 38.9 km/h 21.1 km/h 39 % 0 mm
19:59 26.4 °C 11.7 °C 1007.7 hPa SSW 35.2 km/h 21.9 km/h 40 % 0 mm
20:04 26.1 °C 11.8 °C 1007.3 hPa SSW 24.1 km/h 23.7 km/h 41 % 0 mm
20:09 25.7 °C 12.2 °C 1008 hPa South 37 km/h 25.3 km/h 43 % 0 mm
20:14 25.4 °C 12.2 °C 1008.4 hPa SSW 33.3 km/h 18.8 km/h 44 % 0 mm
20:19 25 °C 12.2 °C 1008.4 hPa SSW 32.2 km/h 23.8 km/h 45 % 0 mm
20:24 24.7 °C 11.7 °C 1008.4 hPa SSW 29.6 km/h 13.5 km/h 44 % 0 mm
20:29 24.4 °C 10.3 °C 1008.4 hPa South 31.5 km/h 19.5 km/h 41 % 0 mm
20:34 24.2 °C 9 °C 1008.4 hPa SSW 33.3 km/h 22.5 km/h 38 % 0 mm
20:39 23.9 °C 8.7 °C 1008.4 hPa SSW 31.5 km/h 21.9 km/h 38 % 0 mm
20:44 23.7 °C 8.9 °C 1008.4 hPa SSE 35.2 km/h 26.9 km/h 39 % 0 mm
20:49 23.4 °C 9.1 °C 1008.4 hPa SW 35.4 km/h 23.8 km/h 40 % 0 mm
20:54 23.2 °C 9.6 °C 1008.4 hPa SSW 31.5 km/h 18.3 km/h 42 % 0 mm
20:59 23 °C 9.7 °C 1008 hPa South 42.6 km/h 24 km/h 43 % 0 mm
21:04 22.8 °C 9.9 °C 1008 hPa South 37 km/h 20.9 km/h 44 % 0 mm
21:09 22.6 °C 10 °C 1008 hPa SSW 27.8 km/h 18 km/h 45 % 0 mm
21:14 22.4 °C 10.5 °C 1008.4 hPa SW 38.9 km/h 22.5 km/h 47 % 0 mm
21:19 22.2 °C 10.3 °C 1008.4 hPa SSW 37 km/h 22.9 km/h 47 % 0 mm
21:24 21.9 °C 10.4 °C 1008.7 hPa South 31.5 km/h 19.5 km/h 48 % 0 mm
21:29 21.8 °C 10.3 °C 1008.7 hPa SSW 25.9 km/h 19.8 km/h 48 % 0 mm
21:34 21.6 °C 10.1 °C 1008.7 hPa South 25.9 km/h 19 km/h 48 % 0 mm
21:39 21.4 °C 9.9 °C 1009 hPa South 24.1 km/h 15.9 km/h 48 % 0 mm
21:44 21.3 °C 10.1 °C 1009 hPa South 27.8 km/h 12.6 km/h 49 % 0 mm
21:49 21.1 °C 10 °C 1009 hPa South 24.1 km/h 19 km/h 49 % 0 mm
21:54 21 °C 9.9 °C 1009.4 hPa South 22.2 km/h 15.4 km/h 49 % 0 mm
21:59 20.9 °C 9.8 °C 1009.4 hPa South 14.8 km/h 9.3 km/h 49 % 0 mm
22:04 20.8 °C 9.9 °C 1009.7 hPa South 24.1 km/h 16.1 km/h 50 % 0 mm
22:09 20.7 °C 9.9 °C 1009.7 hPa South 24.1 km/h 10.8 km/h 50 % 0 mm
22:14 20.6 °C 10.1 °C 1009.7 hPa South 18.5 km/h 9.5 km/h 51 % 0 mm
22:19 20.5 °C 10 °C 1010 hPa SSW 20.4 km/h 17.4 km/h 51 % 0 mm
22:24 20.3 °C 9.8 °C 1010 hPa SSW 27.4 km/h 14.8 km/h 51 % 0 mm
22:29 20.2 °C 9.8 °C 1009.7 hPa SSW 25.9 km/h 13 km/h 51 % 0 mm
22:34 20.2 °C 9.7 °C 1009.7 hPa SSW 24.1 km/h 15.6 km/h 51 % 0 mm
22:39 20.1 °C 9.9 °C 1009.7 hPa South 20.9 km/h 12.4 km/h 52 % 0 mm
22:44 19.9 °C 9.8 °C 1009.7 hPa South 24.1 km/h 15 km/h 52 % 0 mm
22:49 19.9 °C 9.7 °C 1009.7 hPa SSW 27.8 km/h 16.9 km/h 52 % 0 mm
22:54 19.8 °C 9.9 °C 1009.7 hPa SSW 20.9 km/h 14.8 km/h 53 % 0 mm
22:59 19.7 °C 9.9 °C 1010 hPa South 18.5 km/h 13.7 km/h 53 % 0 mm
23:04 19.6 °C 9.8 °C 1009.7 hPa South 16.7 km/h 14 km/h 53 % 0 mm
23:09 19.6 °C 10 °C 1009.7 hPa South 27.8 km/h 16.9 km/h 54 % 0 mm
23:14 19.4 °C 10.2 °C 1009.7 hPa South 27.8 km/h 17.9 km/h 55 % 0 mm
23:19 19.3 °C 10.1 °C 1009.7 hPa South 27.8 km/h 13.4 km/h 55 % 0 mm
23:24 19.2 °C 10.2 °C 1009.7 hPa South 20.4 km/h 10.1 km/h 56 % 0 mm
23:29 19.1 °C 10.4 °C 1009.7 hPa South 18.5 km/h 10.9 km/h 57 % 0 mm
23:34 19.1 °C 10.6 °C 1009.7 hPa SSW 24.1 km/h 13 km/h 58 % 0 mm
23:39 19 °C 10.6 °C 1009.7 hPa South 14.8 km/h 12.2 km/h 58 % 0 mm
23:44 18.9 °C 10.8 °C 1009.7 hPa South 18.5 km/h 10.3 km/h 59 % 0 mm
23:49 18.9 °C 10.8 °C 1009.7 hPa South 20.4 km/h 12.4 km/h 59 % 0 mm
23:54 18.9 °C 10.7 °C 1009.4 hPa South 13 km/h 10.5 km/h 59 % 0 mm
23:59 18.9 °C 10.7 °C 1009.4 hPa South 18.5 km/h 12.1 km/h 59 % 0 mm
Ararat Weather
Compliments of Weather Underground - 2.25 mb
Click here to send mail.


ABOUT

Live weather data from Ararat, Victoria, Australia, 3377
Data uploaded from Cumulus every 5 minutes to Weather Underground.
This site then downloads the raw data for formatting and display.
Metric and imperial data can be displayed. Graphs and historical data available.
Includes Sun and Moon times and rain image live from BOM.

Check out Ararat Weather on Facebook, Twitter and Google +

Help support ongoing costs by checking out the ads





Follow @AraratWeather